Regional Weather Roundup
Issued by NWS

Home | Current Version | Previous Version | Graphics & Text | Print | Product List | Glossary On
Versions: 1 2 3 4 5 6 7 8 9 10 11 12 13 14 15 16 17 18 19 20 21 22 23 24 25 26 27 28 29 30 31 32 33 34 35 36 37 38 39 40 41 42 43 44 45 46 47 48 49 50
200
ASUS43 KLMK 260802
RWRKY
KENTUCKY REGIONAL WEATHER ROUNDUP
NATIONAL WEATHER SERVICE LOUISVILLE KY
400 AM EDT SUN MAR 26 2017

NOTE "FAIR" INDICATES FEW OR NO CLOUDS BELOW 12,000 FEET
WITH NO SIGNIFICANT WEATHER AND/OR OBSTRUCTIONS TO VISIBILITY.

KYZ001>023-026-027-061>063-070>075-260900-
WESTERN AND SOUTH CENTRAL KENTUCKY

CITY           SKY/WX    TMP DP  RH WIND       PRES   REMARKS
PADUCAH        MOCLDY    57  53  86 VRB5      29.89F
HENDERSON      CLOUDY    59  54  82 S8        29.89S
OWENSBORO      CLOUDY    59  56  89 S12       29.92F
HOPKINSVILLE   MOCLDY    59  55  87 S5        29.93S
BOWLING GREEN  CLOUDY    58  55  90 SE7       29.96F
GLASGOW        NOT AVBL
$$

KYZ024-025-028>034-038-045-046-053-260900-
NORTH CENTRAL KENTUCKY

CITY           SKY/WX    TMP DP  RH WIND       PRES   REMARKS
LOUISVILLE/SDF LGT RAIN  59  56  89 SE9       29.97F
LOUISVILLE/LOU LGT RAIN  59  56  89 VRB6      29.98F
FORT KNOX      LGT RAIN  57  57 100 SE8       29.95F
$$

KYZ035>037-039>044-047>052-055>060-089>105-260900-
NORTHEAST KENTUCKY

CITY           SKY/WX    TMP DP  RH WIND       PRES   REMARKS
LEXINGTON      CLOUDY    60  53  77 SW9       30.01F
COVINGTON      CLOUDY    60  56  86 SW8       29.99F
FRANKFORT      LGT RAIN  59  54  83 S8        29.99F
$$

KYZ054-064>069-076>088-106>120-260900-
SOUTHEAST KENTUCKY

CITY           SKY/WX    TMP DP  RH WIND       PRES   REMARKS
JACKSON        CLOUDY    63  45  51 S5        30.02F
LONDON         CLOUDY    62  45  53 SW3       30.01F
SOMERSET       NOT AVBL
MIDDLESBORO    CLOUDY    55  49  81 CALM      30.04F
MONTICELLO     RAIN      57  55  93 W10       30.04F
$$





USA.gov is the U.S. government's official web portal to all federal, state and local government web resources and services.